| time (UTC) | temp C | wind direction | speed KPH | gust KPH | rain 1hr cm | rain 24hr cm | rain mn cm | humidity % | barometer mb |
| 20260505125022 | 5 | 263 | 0.0 | 0.0 | 0.00 | 0.00 | 0.00 | 39 | 1005.1 |
| 20260505124533 | 5 | 263 | 0.0 | 0.0 | 0.00 | 0.00 | 0.00 | 39 | 1005.1 |
| 20260505124022 | 5 | 263 | 0.0 | 0.0 | 0.00 | 0.00 | 0.00 | 39 | 1005.0 |
| 20260505123521 | 5 | 263 | 0.0 | 0.0 | 0.00 | 0.00 | 0.00 | 39 | 1004.9 |
| 20260505123021 | 5 | 263 | 0.0 | 0.0 | 0.00 | 0.00 | 0.00 | 39 | 1004.9 |
| 20260505122520 | 5 | 263 | 0.0 | 0.0 | 0.00 | 0.00 | 0.00 | 39 | 1004.8 |
| 20260505122023 | 5 | 263 | 0.0 | 0.0 | 0.00 | 0.00 | 0.00 | 39 | 1004.7 |
| 20260505121519 | 5 | 260 | 0.0 | 0.0 | 0.00 | 0.00 | 0.00 | 39 | 1004.8 |
| 20260505121019 | 5 | 254 | 0.0 | 0.0 | 0.00 | 0.00 | 0.00 | 38 | 1004.7 |
| 20260505120518 | 6 | 254 | 0.0 | 0.0 | 0.00 | 0.00 | 0.00 | 38 | 1004.7 |
| 20260505120018 | 6 | 253 | 0.0 | 0.0 | 0.00 | 0.00 | 0.00 | 37 | 1004.8 |
| 20260505115519 | 6 | 252 | 0.0 | 0.0 | 0.00 | 0.00 | 0.00 | 37 | 1004.9 |
| 20260505115018 | 6 | 252 | 0.0 | 1.6 | 0.00 | 0.00 | 0.00 | 36 | 1004.9 |
| 20260505114517 | 6 | 253 | 0.0 | 1.6 | 0.00 | 0.00 | 0.00 | 36 | 1004.9 |
| 20260505114016 | 6 | 240 | 0.0 | 1.6 | 0.00 | 0.00 | 0.00 | 36 | 1004.9 |
| 20260505113516 | 6 | 245 | 0.0 | 1.6 | 0.00 | 0.00 | 0.00 | 35 | 1004.8 |
| 20260505113016 | 6 | 244 | 0.0 | 0.0 | 0.00 | 0.00 | 0.00 | 35 | 1004.8 |
| 20260505112516 | 6 | 244 | 0.0 | 4.8 | 0.00 | 0.00 | 0.00 | 35 | 1004.7 |
| 20260505112016 | 6 | 244 | 0.0 | 11.3 | 0.00 | 0.00 | 0.00 | 36 | 1004.7 |
| 20260505111516 | 6 | 232 | 0.0 | 1.6 | 0.00 | 0.00 | 0.00 | 36 | 1004.6 |
| 20260505111019 | 6 | 232 | 0.0 | 0.0 | 0.00 | 0.00 | 0.00 | 37 | 1004.6 |
| 20260505110516 | 5 | 231 | 0.0 | 0.0 | 0.00 | 0.00 | 0.00 | 37 | 1004.4 |
| 20260505102009 | 6 | 231 | 0.0 | 0.0 | 0.00 | 0.00 | 0.00 | 35 | 1004.3 |
| 20260505101508 | 6 | 231 | 0.0 | 0.0 | 0.00 | 0.00 | 0.00 | 35 | 1004.3 |
| 20260505101008 | 6 | 232 | 0.0 | 12.9 | 0.00 | 0.00 | 0.00 | 34 | 1004.2 |
| 20260505100509 | 6 | 241 | 1.6 | 16.1 | 0.00 | 0.00 | 0.00 | 34 | 1004.1 |
| 20260505100007 | 6 | 252 | 0.0 | 16.1 | 0.00 | 0.00 | 0.00 | 34 | 1004.1 |
| 20260505095507 | 6 | 248 | 0.0 | 0.0 | 0.00 | 0.00 | 0.00 | 34 | 1004.2 |
| 20260505095005 | 6 | 249 | 0.0 | 0.0 | 0.00 | 0.00 | 0.00 | 34 | 1004.2 |
| 20260505094506 | 6 | 249 | 0.0 | 0.0 | 0.00 | 0.00 | 0.00 | 34 | 1004.2 |
| 20260505094005 | 6 | 249 | 0.0 | 0.0 | 0.00 | 0.00 | 0.00 | 33 | 1004.1 |
| 20260505093503 | 7 | 249 | 0.0 | 0.0 | 0.00 | 0.00 | 0.00 | 33 | 1004.3 |
| 20260505093003 | 7 | 244 | 0.0 | 3.2 | 0.00 | 0.00 | 0.00 | 33 | 1004.1 |
| 20260505092502 | 7 | 229 | 0.0 | 3.2 | 0.00 | 0.00 | 0.00 | 32 | 1003.9 |
| 20260505092003 | 7 | 251 | 0.0 | 3.2 | 0.00 | 0.00 | 0.00 | 32 | 1004.1 |
| 20260505091502 | 7 | 234 | 0.0 | 0.0 | 0.00 | 0.00 | 0.00 | 32 | 1004.2 |
| 20260505091001 | 7 | 239 | 0.0 | 0.0 | 0.00 | 0.00 | 0.00 | 32 | 1004.2 |
| 20260505090600 | 7 | 238 | 0.0 | 0.0 | 0.00 | 0.00 | 0.00 | 32 | 1004.2 |
| 20260505090059 | 7 | 241 | 0.0 | 0.0 | 0.00 | 0.00 | 0.00 | 32 | 1004.3 |
| 20260505085559 | 7 | 235 | 0.0 | 1.6 | 0.00 | 0.00 | 0.00 | 31 | 1004.2 |
| 20260505085059 | 7 | 246 | 0.0 | 1.6 | 0.00 | 0.00 | 0.00 | 31 | 1004.2 |
| 20260505084558 | 7 | 234 | 0.0 | 0.0 | 0.00 | 0.00 | 0.00 | 31 | 1004.2 |
| 20260505084057 | 7 | 250 | 0.0 | 0.0 | 0.00 | 0.00 | 0.00 | 31 | 1004.2 |
| 20260505083555 | 7 | 249 | 0.0 | 1.6 | 0.00 | 0.00 | 0.00 | 31 | 1004.4 |
| 20260505083057 | 7 | 242 | 0.0 | 1.6 | 0.00 | 0.00 | 0.00 | 31 | 1004.6 |
| 20260505082553 | 7 | 231 | 0.0 | 11.3 | 0.00 | 0.00 | 0.00 | 31 | 1004.6 |
| 20260505082053 | 7 | 232 | 0.0 | 12.9 | 0.00 | 0.00 | 0.00 | 30 | 1004.8 |
| 20260505081553 | 7 | 248 | 0.0 | 12.9 | 0.00 | 0.00 | 0.00 | 30 | 1004.8 |
| 20260505081052 | 7 | 227 | 0.0 | 12.9 | 0.00 | 0.00 | 0.00 | 30 | 1004.8 |
| 20260505080551 | 7 | 238 | 0.0 | 14.5 | 0.00 | 0.00 | 0.00 | 30 | 1005.0 |
| 20260505080059 | 7 | 234 | 0.0 | 14.5 | 0.00 | 0.00 | 0.00 | 30 | 1004.9 |
| 20260505075551 | 7 | 250 | 0.0 | 6.4 | 0.00 | 0.00 | 0.00 | 30 | 1005.0 |
| 20260505075051 | 7 | 237 | 0.0 | 6.4 | 0.00 | 0.00 | 0.00 | 30 | 1005.2 |
| 20260505074550 | 7 | 242 | 0.0 | 6.4 | 0.00 | 0.00 | 0.00 | 30 | 1005.0 |
| 20260505074050 | 7 | 237 | 0.0 | 0.0 | 0.00 | 0.00 | 0.00 | 30 | 1005.1 |
| 20260505073549 | 7 | 235 | 0.0 | 0.0 | 0.00 | 0.00 | 0.00 | 30 | 1005.1 |
| 20260505073048 | 8 | 244 | 0.0 | 0.0 | 0.00 | 0.00 | 0.00 | 30 | 1005.1 |
| 20260505072547 | 8 | 219 | 0.0 | 14.5 | 0.00 | 0.00 | 0.00 | 29 | 1005.1 |
| 20260505072046 | 8 | 223 | 1.6 | 14.5 | 0.00 | 0.00 | 0.00 | 29 | 1005.0 |
| 20260505071546 | 8 | 238 | 0.0 | 8.0 | 0.00 | 0.00 | 0.00 | 29 | 1005.2 |
| 20260505071046 | 8 | 233 | 0.0 | 0.0 | 0.00 | 0.00 | 0.00 | 29 | 1005.1 |
| 20260505070545 | 8 | 234 | 0.0 | 1.6 | 0.00 | 0.00 | 0.00 | 29 | 1005.1 |
| 20260505070048 | 8 | 247 | 0.0 | 4.8 | 0.00 | 0.00 | 0.00 | 29 | 1005.1 |
| 20260505065544 | 8 | 238 | 0.0 | 4.8 | 0.00 | 0.00 | 0.00 | 29 | 1005.2 |
| 20260505065043 | 8 | 237 | 0.0 | 19.3 | 0.00 | 0.00 | 0.00 | 29 | 1005.0 |
| 20260505064545 | 8 | 267 | 3.2 | 19.3 | 0.00 | 0.00 | 0.00 | 28 | 1004.8 |
| 20260505064041 | 8 | 252 | 0.0 | 1.6 | 0.00 | 0.00 | 0.00 | 29 | 1004.9 |
| 20260505063543 | 9 | 250 | 0.0 | 17.7 | 0.00 | 0.00 | 0.00 | 29 | 1005.0 |
| 20260505063039 | 9 | 255 | 0.0 | 24.1 | 0.00 | 0.00 | 0.00 | 29 | 1004.9 |
| 20260505062538 | 9 | 259 | 1.6 | 19.3 | 0.00 | 0.00 | 0.00 | 29 | 1004.9 |
| 20260505062036 | 9 | 254 | 0.0 | 17.7 | 0.00 | 0.00 | 0.00 | 30 | 1004.7 |
| 20260505061536 | 9 | 231 | 0.0 | 14.5 | 0.00 | 0.00 | 0.00 | 29 | 1004.8 |
| 20260505061035 | 10 | 230 | 0.0 | 1.6 | 0.00 | 0.00 | 0.00 | 29 | 1004.8 |
| 20260505060534 | 10 | 240 | 0.0 | 1.6 | 0.00 | 0.00 | 0.00 | 29 | 1004.8 |
| 20260505060037 | 10 | 228 | 0.0 | 1.6 | 0.00 | 0.00 | 0.00 | 29 | 1004.8 |
| 20260505055534 | 10 | 246 | 0.0 | 16.1 | 0.00 | 0.00 | 0.00 | 29 | 1004.6 |
| 20260505055032 | 10 | 246 | 0.0 | 16.1 | 0.00 | 0.00 | 0.00 | 30 | 1004.5 |
| 20260505054533 | 10 | 232 | 0.0 | 3.2 | 0.00 | 0.00 | 0.00 | 30 | 1004.5 |
| 20260505054036 | 10 | 248 | 0.0 | 3.2 | 0.00 | 0.00 | 0.00 | 30 | 1004.4 |
| 20260505053533 | 10 | 257 | 0.0 | 0.0 | 0.00 | 0.00 | 0.00 | 30 | 1004.3 |
| 20260505053054 | 10 | 258 | 0.0 | 0.0 | 0.00 | 0.00 | 0.00 | 31 | 1004.5 |
| 20260505052532 | 10 | 257 | 0.0 | 0.0 | 0.00 | 0.00 | 0.00 | 30 | 1004.4 |
| 20260505052036 | 10 | 257 | 0.0 | 0.0 | 0.00 | 0.00 | 0.00 | 30 | 1004.2 |
| 20260505051531 | 10 | 257 | 0.0 | 0.0 | 0.00 | 0.00 | 0.00 | 30 | 1004.2 |
| 20260505051032 | 10 | 257 | 0.0 | 0.0 | 0.00 | 0.00 | 0.00 | 30 | 1004.3 |
| 20260505050532 | 10 | 257 | 0.0 | 0.0 | 0.00 | 0.00 | 0.00 | 30 | 1004.3 |
| 20260505041533 | 10 | 257 | 0.0 | 0.0 | 0.00 | 0.00 | 0.00 | 30 | 1004.3 |
| 20260505041029 | 10 | 257 | 0.0 | 0.0 | 0.00 | 0.00 | 0.00 | 30 | 1004.3 |
| 20260505040529 | 10 | 257 | 0.0 | 0.0 | 0.00 | 0.00 | 0.00 | 30 | 1004.2 |
| 20260505040029 | 10 | 257 | 0.0 | 0.0 | 0.00 | 0.00 | 0.00 | 30 | 1004.1 |
| 20260505035531 | 10 | 257 | 0.0 | 0.0 | 0.00 | 0.00 | 0.00 | 30 | 1004.0 |
| 20260505035029 | 10 | 257 | 0.0 | 0.0 | 0.00 | 0.00 | 0.00 | 30 | 1004.1 |
| 20260505034532 | 10 | 257 | 0.0 | 0.0 | 0.00 | 0.00 | 0.00 | 30 | 1004.0 |
| 20260505034031 | 10 | 257 | 0.0 | 0.0 | 0.00 | 0.00 | 0.00 | 30 | 1004.1 |
| 20260505033531 | 10 | 257 | 0.0 | 0.0 | 0.00 | 0.00 | 0.00 | 30 | 1004.1 |
| 20260505033027 | 10 | 257 | 0.0 | 0.0 | 0.00 | 0.00 | 0.00 | 30 | 1003.9 |
| 20260505032527 | 10 | 257 | 0.0 | 0.0 | 0.00 | 0.00 | 0.00 | 31 | 1003.9 |
| 20260505032028 | 10 | 257 | 0.0 | 0.0 | 0.00 | 0.00 | 0.00 | 30 | 1003.8 |
| 20260505031527 | 10 | 257 | 0.0 | 0.0 | 0.00 | 0.00 | 0.00 | 30 | 1003.7 |
| 20260505031030 | 10 | 257 | 0.0 | 0.0 | 0.00 | 0.00 | 0.00 | 30 | 1003.8 |
| 20260505030527 | 11 | 257 | 0.0 | 0.0 | 0.00 | 0.00 | 0.00 | 30 | 1003.7 |
| 20260505030026 | 11 | 257 | 0.0 | 0.0 | 0.00 | 0.00 | 0.00 | 30 | 1003.7 |
| 20260505025527 | 11 | 257 | 0.0 | 0.0 | 0.00 | 0.00 | 0.00 | 29 | 1003.8 |
| 20260505025027 | 11 | 257 | 0.0 | 0.0 | 0.00 | 0.00 | 0.00 | 29 | 1003.8 |
| 20260505024526 | 11 | 257 | 0.0 | 0.0 | 0.00 | 0.00 | 0.00 | 29 | 1003.6 |
| 20260505024030 | 11 | 257 | 0.0 | 0.0 | 0.00 | 0.00 | 0.00 | 29 | 1003.6 |
| 20260505023525 | 11 | 257 | 0.0 | 0.0 | 0.00 | 0.00 | 0.00 | 28 | 1003.6 |
| 20260505023025 | 11 | 257 | 0.0 | 0.0 | 0.00 | 0.00 | 0.00 | 28 | 1003.7 |
| 20260505022525 | 11 | 257 | 0.0 | 0.0 | 0.00 | 0.00 | 0.00 | 28 | 1003.6 |
| 20260505022026 | 11 | 257 | 0.0 | 0.0 | 0.00 | 0.00 | 0.00 | 28 | 1003.6 |
| 20260505021525 | 11 | 257 | 0.0 | 0.0 | 0.00 | 0.00 | 0.00 | 28 | 1003.5 |
| 20260505021025 | 11 | 257 | 0.0 | 0.0 | 0.00 | 0.00 | 0.00 | 28 | 1003.6 |
| 20260505020524 | 11 | 257 | 0.0 | 0.0 | 0.00 | 0.00 | 0.00 | 28 | 1003.5 |
| 20260505020024 | 12 | 257 | 0.0 | 0.0 | 0.00 | 0.00 | 0.00 | 27 | 1003.5 |
| 20260505015524 | 12 | 257 | 0.0 | 0.0 | 0.00 | 0.00 | 0.00 | 27 | 1003.5 |
| 20260505015023 | 12 | 257 | 0.0 | 0.0 | 0.00 | 0.00 | 0.00 | 27 | 1003.6 |
| 20260505014523 | 12 | 257 | 0.0 | 0.0 | 0.00 | 0.00 | 0.00 | 27 | 1003.6 |
| 20260505014023 | 12 | 257 | 0.0 | 0.0 | 0.00 | 0.00 | 0.00 | 26 | 1003.5 |
| 20260505013527 | 12 | 257 | 0.0 | 0.0 | 0.00 | 0.00 | 0.00 | 27 | 1003.5 |
| 20260505013022 | 12 | 257 | 0.0 | 0.0 | 0.00 | 0.00 | 0.00 | 26 | 1003.5 |
| 20260505012524 | 12 | 257 | 0.0 | 0.0 | 0.00 | 0.00 | 0.00 | 26 | 1003.4 |
| 20260505012022 | 12 | 257 | 0.0 | 0.0 | 0.00 | 0.00 | 0.00 | 25 | 1003.4 |
| 20260505011543 | 12 | 257 | 0.0 | 1.6 | 0.00 | 0.00 | 0.00 | 25 | 1003.5 |
| 20260505011024 | 12 | 258 | 0.0 | 6.4 | 0.00 | 0.00 | 0.00 | 25 | 1003.4 |
| 20260505010522 | 13 | 258 | 0.0 | 6.4 | 0.00 | 0.00 | 0.00 | 25 | 1003.5 |
| 20260505010021 | 13 | 242 | 0.0 | 3.2 | 0.00 | 0.00 | 0.00 | 24 | 1003.5 |
| 20260505005521 | 13 | 234 | 0.0 | 0.0 | 0.00 | 0.00 | 0.00 | 24 | 1003.4 |
| 20260505005021 | 13 | 234 | 0.0 | 0.0 | 0.00 | 0.00 | 0.00 | 24 | 1003.4 |
| 20260505004521 | 13 | 242 | 0.0 | 0.0 | 0.00 | 0.00 | 0.00 | 25 | 1003.3 |
| 20260505004021 | 13 | 243 | 0.0 | 0.0 | 0.00 | 0.00 | 0.00 | 24 | 1003.3 |
| 20260505003519 | 13 | 241 | 0.0 | 0.0 | 0.00 | 0.00 | 0.00 | 25 | 1003.4 |
| 20260505003018 | 13 | 254 | 0.0 | 0.0 | 0.00 | 0.00 | 0.00 | 24 | 1003.5 |
| 20260505002519 | 13 | 296 | 0.0 | 12.9 | 0.00 | 0.00 | 0.00 | 24 | 1003.5 |
| 20260505002019 | 13 | 223 | 0.0 | 12.9 | 0.00 | 0.00 | 0.00 | 24 | 1003.5 |
| 20260505001518 | 13 | 224 | 0.0 | 12.9 | 0.00 | 0.00 | 0.00 | 24 | 1003.5 |
| 20260505001020 | 13 | 259 | 0.0 | 1.6 | 0.00 | 0.00 | 0.00 | 24 | 1003.6 |
| 20260505000519 | 13 | 248 | 0.0 | 11.3 | 0.00 | 0.00 | 0.00 | 25 | 1003.5 |
| 20260505000018 | 13 | 250 | 0.0 | 11.3 | 0.00 | 0.00 | 0.00 | 25 | 1003.6 |
| 20260504235518 | 13 | 239 | 0.0 | 16.1 | 0.00 | 0.00 | 0.00 | 25 | 1003.6 |
| 20260504235017 | 13 | 228 | 0.0 | 16.1 | 0.00 | 0.00 | 0.00 | 24 | 1003.6 |
| 20260504234517 | 13 | 229 | 0.0 | 19.3 | 0.00 | 0.00 | 0.00 | 25 | 1003.9 |
| 20260504234016 | 13 | 216 | 1.6 | 24.1 | 0.00 | 0.00 | 0.00 | 25 | 1003.8 |
| 20260504233516 | 13 | 233 | 3.2 | 27.4 | 0.00 | 0.00 | 0.00 | 25 | 1003.8 |
| 20260504233016 | 14 | 254 | 12.9 | 27.4 | 0.00 | 0.00 | 0.00 | 24 | 1003.8 |
| 20260504232516 | 14 | 269 | 0.0 | 24.1 | 0.00 | 0.00 | 0.00 | 24 | 1003.7 |
| 20260504232015 | 14 | 249 | 0.0 | 29.0 | 0.00 | 0.00 | 0.00 | 26 | 1003.7 |
| 20260504231515 | 14 | 252 | 4.8 | 25.7 | 0.00 | 0.00 | 0.00 | 25 | 1003.8 |
| 20260504231015 | 14 | 226 | 1.6 | 17.7 | 0.00 | 0.00 | 0.00 | 24 | 1003.8 |
| 20260504230515 | 14 | 236 | 3.2 | 27.4 | 0.00 | 0.00 | 0.00 | 25 | 1003.7 |
| 20260504230014 | 14 | 248 | 4.8 | 27.4 | 0.00 | 0.00 | 0.00 | 25 | 1003.8 |
| 20260504225513 | 14 | 227 | 0.0 | 19.3 | 0.00 | 0.00 | 0.00 | 27 | 1003.7 |
| 20260504225013 | 13 | 232 | 0.0 | 30.6 | 0.00 | 0.00 | 0.00 | 28 | 1003.6 |
| 20260504224514 | 13 | 243 | 16.1 | 30.6 | 0.00 | 0.00 | 0.00 | 27 | 1003.6 |
| 20260504224013 | 14 | 240 | 3.2 | 25.7 | 0.00 | 0.00 | 0.00 | 27 | 1003.5 |
| 20260504223516 | 14 | 219 | 0.0 | 24.1 | 0.00 | 0.00 | 0.00 | 28 | 1003.5 |
| 20260504223013 | 14 | 225 | 0.0 | 25.7 | 0.00 | 0.00 | 0.00 | 27 | 1003.5 |
| 20260504222511 | 13 | 235 | 6.4 | 22.5 | 0.00 | 0.00 | 0.00 | 28 | 1003.6 |
| 20260504222011 | 13 | 227 | 0.0 | 35.4 | 0.00 | 0.00 | 0.00 | 28 | 1003.8 |
| 20260504221512 | 14 | 238 | 3.2 | 22.5 | 0.00 | 0.00 | 0.00 | 29 | 1003.7 |
| 20260504221017 | 14 | 252 | 4.8 | 22.5 | 0.00 | 0.00 | 0.00 | 28 | 1003.6 |
| 20260504220511 | 14 | 232 | 0.0 | 24.1 | 0.00 | 0.00 | 0.00 | 28 | 1003.7 |
| 20260504220011 | 14 | 227 | 8.0 | 25.7 | 0.00 | 0.00 | 0.00 | 27 | 1003.8 |
| 20260504215511 | 15 | 228 | 1.6 | 25.7 | 0.00 | 0.00 | 0.00 | 28 | 1003.8 |
| 20260504215009 | 15 | 256 | 9.7 | 25.7 | 0.00 | 0.00 | 0.00 | 27 | 1003.7 |
| 20260504214510 | 14 | 306 | 6.4 | 24.1 | 0.00 | 0.00 | 0.00 | 29 | 1003.7 |
| 20260504214008 | 15 | 237 | 0.0 | 24.1 | 0.00 | 0.00 | 0.00 | 26 | 1004.0 |
| 20260504213508 | 15 | 224 | 8.0 | 24.1 | 0.00 | 0.00 | 0.00 | 27 | 1004.1 |
| 20260504213006 | 15 | 249 | 0.0 | 20.9 | 0.00 | 0.00 | 0.00 | 30 | 1004.0 |
| 20260504212505 | 15 | 274 | 0.0 | 20.9 | 0.00 | 0.00 | 0.00 | 30 | 1004.2 |
| 20260504212004 | 15 | 228 | 4.8 | 24.1 | 0.00 | 0.00 | 0.00 | 32 | 1004.4 |
| 20260504211504 | 15 | 264 | 8.0 | 24.1 | 0.00 | 0.00 | 0.00 | 33 | 1004.4 |
| 20260504211003 | 15 | 182 | 0.0 | 19.3 | 0.00 | 0.00 | 0.00 | 33 | 1004.4 |
| 20260504210502 | 14 | 200 | 3.2 | 19.3 | 0.00 | 0.00 | 0.00 | 35 | 1004.4 |
| 20260504210001 | 13 | 240 | 0.0 | 17.7 | 0.00 | 0.00 | 0.00 | 33 | 1004.4 |
| 20260504205502 | 14 | 238 | 1.6 | 20.9 | 0.00 | 0.00 | 0.00 | 34 | 1004.4 |
| 20260504205001 | 14 | 269 | 3.2 | 20.9 | 0.00 | 0.00 | 0.00 | 34 | 1004.6 |
| 20260504204615 | 14 | 223 | 3.2 | 19.3 | 0.00 | 0.00 | 0.00 | 35 | 1004.8 |
| 20260504204059 | 14 | 240 | 0.0 | 22.5 | 0.00 | 0.00 | 0.00 | 35 | 1004.8 |
| 20260504203600 | 14 | 227 | 0.0 | 19.3 | 0.00 | 0.00 | 0.00 | 35 | 1004.7 |
| 20260504203100 | 14 | 230 | 0.0 | 16.1 | 0.00 | 0.00 | 0.00 | 36 | 1004.8 |
| 20260504202555 | 13 | 206 | 0.0 | 16.1 | 0.00 | 0.00 | 0.00 | 37 | 1004.9 |
| 20260504202058 | 13 | 259 | 0.0 | 22.5 | 0.00 | 0.00 | 0.00 | 37 | 1005.1 |
| 20260504201555 | 13 | 229 | 0.0 | 29.0 | 0.00 | 0.00 | 0.00 | 37 | 1005.1 |
| 20260504201055 | 13 | 242 | 11.3 | 29.0 | 0.00 | 0.00 | 0.00 | 36 | 1004.9 |
| 20260504200554 | 13 | 234 | 0.0 | 16.1 | 0.00 | 0.00 | 0.00 | 37 | 1005.0 |
| 20260504200059 | 13 | 205 | 0.0 | 24.1 | 0.00 | 0.00 | 0.00 | 37 | 1005.2 |
| 20260504195551 | 13 | 222 | 8.0 | 24.1 | 0.00 | 0.00 | 0.00 | 37 | 1005.3 |
| 20260504195051 | 13 | 207 | 0.0 | 16.1 | 0.00 | 0.00 | 0.00 | 39 | 1005.1 |
| 20260504194600 | 13 | 272 | 0.0 | 4.8 | 0.00 | 0.00 | 0.00 | 38 | 1005.0 |
| 20260504194051 | 12 | 234 | 0.0 | 22.5 | 0.00 | 0.00 | 0.00 | 39 | 1005.0 |
| 20260504193551 | 13 | 233 | 8.0 | 22.5 | 0.00 | 0.00 | 0.00 | 38 | 1005.1 |
| 20260504193053 | 13 | 247 | 0.0 | 8.0 | 0.00 | 0.00 | 0.00 | 39 | 1005.2 |
| 20260504192551 | 12 | 247 | 0.0 | 22.5 | 0.00 | 0.00 | 0.00 | 40 | 1005.1 |
| 20260504192050 | 12 | 248 | 0.0 | 22.5 | 0.00 | 0.00 | 0.00 | 40 | 1005.1 |
| 20260504191606 | 12 | 230 | 3.2 | 19.3 | 0.00 | 0.00 | 0.00 | 40 | 1005.0 |
| 20260504191050 | 13 | 227 | 0.0 | 17.7 | 0.00 | 0.00 | 0.00 | 40 | 1005.1 |
| 20260504190552 | 13 | 233 | 3.2 | 17.7 | 0.00 | 0.00 | 0.00 | 40 | 1005.1 |
| 20260504190050 | 13 | 240 | 0.0 | 16.1 | 0.00 | 0.00 | 0.00 | 41 | 1005.3 |
| 20260504185547 | 13 | 197 | 0.0 | 16.1 | 0.00 | 0.00 | 0.00 | 40 | 1005.3 |
| 20260504185047 | 13 | 213 | 0.0 | 11.3 | 0.00 | 0.00 | 0.00 | 44 | 1005.2 |
| 20260504184547 | 13 | 223 | 0.0 | 1.6 | 0.00 | 0.00 | 0.00 | 45 | 1005.3 |
| 20260504184045 | 12 | 225 | 0.0 | 6.4 | 0.00 | 0.00 | 0.00 | 47 | 1005.4 |
| 20260504183545 | 12 | 228 | 0.0 | 6.4 | 0.00 | 0.00 | 0.00 | 47 | 1005.4 |
| 20260504183045 | 12 | 238 | 0.0 | 6.4 | 0.00 | 0.00 | 0.00 | 47 | 1005.5 |
| 20260504182545 | 12 | 233 | 0.0 | 4.8 | 0.00 | 0.00 | 0.00 | 47 | 1005.6 |
| 20260504182044 | 12 | 238 | 0.0 | 17.7 | 0.00 | 0.00 | 0.00 | 48 | 1005.6 |
| 20260504181548 | 12 | 250 | 0.0 | 6.4 | 0.00 | 0.00 | 0.00 | 46 | 1005.6 |
| 20260504181044 | 12 | 238 | 0.0 | 1.6 | 0.00 | 0.00 | 0.00 | 47 | 1005.5 |
| 20260504180543 | 12 | 200 | 0.0 | 0.0 | 0.00 | 0.00 | 0.00 | 47 | 1005.6 |
| 20260504180044 | 12 | 192 | 0.0 | 8.0 | 0.00 | 0.00 | 0.00 | 47 | 1005.4 |
| 20260504175543 | 12 | 218 | 0.0 | 8.0 | 0.00 | 0.00 | 0.00 | 47 | 1005.4 |
| 20260504175042 | 12 | 223 | 0.0 | 14.5 | 0.00 | 0.00 | 0.00 | 47 | 1005.4 |
| 20260504174541 | 12 | 249 | 0.0 | 14.5 | 0.00 | 0.00 | 0.00 | 49 | 1005.5 |
| 20260504174041 | 12 | 216 | 0.0 | 8.0 | 0.00 | 0.00 | 0.00 | 48 | 1005.5 |
| 20260504173541 | 12 | 195 | 0.0 | 0.0 | 0.00 | 0.00 | 0.00 | 49 | 1005.7 |
| 20260504173039 | 12 | 232 | 0.0 | 12.9 | 0.00 | 0.00 | 0.00 | 50 | 1005.7 |
| 20260504172543 | 11 | 233 | 0.0 | 12.9 | 0.00 | 0.00 | 0.00 | 50 | 1005.7 |
| 20260504172041 | 12 | 239 | 0.0 | 4.8 | 0.00 | 0.00 | 0.00 | 50 | 1005.8 |
| 20260504171547 | 12 | 236 | 0.0 | 1.6 | 0.00 | 0.00 | 0.00 | 50 | 1005.7 |
| 20260504171041 | 12 | 223 | 0.0 | 0.0 | 0.00 | 0.00 | 0.00 | 48 | 1005.6 |
| 20260504170540 | 12 | 127 | 0.0 | 0.0 | 0.00 | 0.00 | 0.00 | 48 | 1005.6 |
| 20260504151030 | 10 | 319 | 0.0 | 0.0 | 0.00 | 0.00 | 0.00 | 53 | 1006.4 |
| 20260504150527 | 10 | 319 | 0.0 | 0.0 | 0.00 | 0.00 | 0.00 | 52 | 1006.5 |
| 20260504141025 | 8 | 316 | 0.0 | 0.0 | 0.00 | 0.00 | 0.00 | 62 | 1006.7 |
| 20260504140527 | 8 | 316 | 0.0 | 0.0 | 0.00 | 0.00 | 0.00 | 64 | 1006.6 |
| 20260504130520 | 7 | 316 | 0.0 | 0.0 | 0.00 | 0.00 | 0.00 | 62 | 1006.1 |